This is the latest recevied weather packets stored in our database for station/object W0CHP-13. If no packets are shown the sender has not sent any weather packets the latest 10 day(s).
| Time | Temp. | Humidity | Pressure | Rain* | Wind** | Luminosity | Snow |
|---|---|---|---|---|---|---|---|
| 1777997597 | 15.56° C | 24% | 1008.9 hPa | 0 mm | - | 619 W/m² | - |
| 1777996995 | 15° C | 23% | 1008.9 hPa | 0 mm | - | 661 W/m² | - |
| 1777996397 | 15.56° C | 21% | 1008.5 hPa | 0 mm | - | 627 W/m² | - |
| 1777995795 | 15° C | 24% | 1008.9 hPa | 0 mm | - | 580 W/m² | - |
| 1777995198 | 14.44° C | 23% | 1008.9 hPa | 0 mm | - | 607 W/m² | - |
| 1777994596 | 15.56° C | 22% | 1008.9 hPa | 0 mm | - | 569 W/m² | - |
| 1777993998 | 14.44° C | 23% | 1008.9 hPa | 0 mm | - | 570 W/m² | - |
| 1777993396 | 15.56° C | 25% | 1008.7 hPa | 0 mm | - | 536 W/m² | - |
| 1777992798 | 15° C | 25% | 1008.5 hPa | 0 mm | - | 429 W/m² | - |
| 1777992196 | 13.89° C | 24% | 1008.5 hPa | 0 mm | - | 483 W/m² | - |
| 1777991598 | 13.89° C | 25% | 1008.9 hPa | 0 mm | - | 454 W/m² | - |
| 1777990997 | 14.44° C | 23% | 1008.9 hPa | 0 mm | - | 423 W/m² | - |
| 1777990395 | 15° C | 26% | 1008.7 hPa | 0 mm | - | 396 W/m² | - |
| 1777989797 | 14.44° C | 27% | 1008.9 hPa | 0 mm | - | 363 W/m² | - |
| 1777989195 | 14.44° C | 29% | 1008.9 hPa | 0 mm | - | 334 W/m² | - |
| 1777988597 | 13.89° C | 29% | 1008.7 hPa | 0 mm | - | 303 W/m² | - |
| 1777987996 | 12.78° C | 33% | 1008.9 hPa | 0 mm | - | 272 W/m² | - |
| 1777987398 | 12.22° C | 33% | 1008.7 hPa | 0 mm | - | 221 W/m² | - |
| 1777986796 | 10.56° C | 35% | 1008.5 hPa | 0 mm | - | 180 W/m² | - |
| 1777986198 | 9.44° C | 41% | 1008.5 hPa | 0 mm | - | 97 W/m² | - |
| 1777985596 | 8.33° C | 45% | 1008.2 hPa | 0 mm | - | 87 W/m² | - |
| 1777984998 | 7.78° C | 48% | 1008.2 hPa | 0 mm | - | 63 W/m² | - |
| 1777984397 | 6.67° C | 49% | 1007.8 hPa | 0 mm | - | 41 W/m² | - |
| 1777983795 | 6.67° C | 50% | 1007.8 hPa | 0 mm | - | 32 W/m² | - |
| 1777983197 | 6.11° C | 51% | 1007.5 hPa | 0 mm | - | 29 W/m² | - |
* Rain latest hour (hover to see other rain measurements)
** Current wind speed in m/s (hover to see current wind gust speed)